Location: Unspecified
(51.0950°N, 12.9690°E)
Time: 23:59:54
(UTC+00:00)

CUBESAT XI-V - Visible Passes

Search period start: 23 April 2024 00:00
Search period end: 03 May 2024 00:00
Orbit: 658 x 681 km, 98.2° (Epoch: 23 April)

Date Brightness Start Highest point End Pass type
(mag) Time Alt. Az. Time Alt. Az. Time Alt. Az.
23 Apr ? 00:33:01 35° SE 00:34:40 54° ENE 00:39:11 10° N visible
23 Apr ? 02:11:12 21° WSW 02:12:03 22° W 02:15:38 10° NW visible
23 Apr ? 23:27:38 10° E 23:30:38 17° ENE 23:33:39 10° NNE visible
24 Apr ? 01:05:50 46° S 01:07:10 79° WSW 01:11:49 10° NNW visible
24 Apr ? 02:44:01 11° W 02:45:01 11° W 02:46:28 10° WNW visible
25 Apr ? 00:00:25 19° ESE 00:02:51 30° ENE 00:06:51 10° N visible
25 Apr ? 01:38:37 34° SW 01:39:49 40° W 01:44:11 10° NNW visible
25 Apr ? 22:58:48 10° NE 22:59:05 10° NE 22:59:22 10° NE visible
26 Apr ? 00:33:12 31° SE 00:35:12 55° ENE 00:39:42 10° N visible
26 Apr ? 02:11:23 20° WSW 02:12:36 22° W 02:16:09 10° NW visible
26 Apr ? 23:28:08 10° E 23:31:08 17° ENE 23:34:09 10° NNE visible
27 Apr ? 01:05:58 39° S 01:07:40 79° WSW 01:12:18 10° NNW visible
27 Apr ? 02:44:10 10° WSW 02:45:32 11° W 02:46:54 10° WNW visible
28 Apr ? 00:00:34 17° ESE 00:03:19 30° ENE 00:07:19 10° N visible
28 Apr ? 01:38:44 30° SW 01:40:17 40° W 01:44:38 10° NNW visible
28 Apr ? 22:59:14 10° NE 22:59:31 10° NE 22:59:48 10° NE visible
29 Apr ? 00:33:18 27° SE 00:35:38 55° ENE 00:40:08 10° N visible
29 Apr ? 02:11:29 18° WSW 02:13:02 21° W 02:16:34 10° NW visible
29 Apr ? 23:28:32 10° E 23:31:33 18° ENE 23:34:33 10° NNE visible
30 Apr ? 01:06:02 33° S 01:08:05 78° WSW 01:12:41 10° NNW visible
30 Apr ? 02:44:38 10° WSW 02:45:56 11° W 02:47:14 10° WNW visible
01 May ? 00:00:35 15° ESE 00:03:42 30° ENE 00:07:41 10° N visible
01 May ? 01:38:47 27° SSW 01:40:40 40° W 01:45:00 10° NNW visible
01 May ? 22:59:36 10° NE 22:59:51 10° NE 23:00:06 10° NE visible
02 May ? 00:33:19 23° SE 00:35:58 55° ENE 00:40:28 10° N visible
02 May ? 02:11:30 17° WSW 02:13:22 21° W 02:16:53 10° NW visible
02 May ? 23:28:51 10° E 23:31:50 17° ENE 23:34:50 10° NNE visible
